Temp
-4 -4 -5 -5 -5 -5 -6 -6 -5 -5 -6 -5 -5 -5 -4 -5 -4 -5 -4 -4 -4 -4 -5 -5 -6 -6 -6 -5 -6 -5 -5 -5 -5 -5 -5 -5 -5 -5 -5 -5 -5 -5 -5 -6
-5 -5 -6 -5 -4 -4 -5 -5 -4 -5 -6 -5 -5 -4 -4 -4 -4 -4 -4 -4 -4 -5 -5 -5 -6 -5 -5 -5 -5 -6 -6 -5 -5 -5 -6 -6 -5 -5 -6 -6 -6 -6 -6 -6
-5 -6 -5 -4 -4 -4 -4 -5 -5 -5 -6 -5 -5 -5 -5 -4 -4 -4 -4 -4 -4 -4 -4 -4 -4 -5 -5 -5 -5 -5 -5 -5 -4 -6 -6 -6 -6 -5 -5 -6 -6 -6 -6 -6
-5 -5 -5 -6 -5 -5 -5 -5 -6 -5 -5 -5 -5 -5 -6 -4 -4 -4 -4 -4 -4 -4 -4 -4 -4 -4 -4 -4 -5 -5 -4 -4 -5 -5 -5 -5 -6 -6 -6 -6 -7 -7 -7 -7
-4 -5 -4 -4 -6 -6 -6 -6 -6 -6 -5 -6 -5 -6 -6 -5 -4 -5 -5 -5 -5 -5 -5 -4 -4 -4 -4 -4 -5 -5 -5 -5 -5 -6 -5 -5 -5 -6 -7 -7 -7 -6 -6 -7
-4 -4 -4 -5 -6 -7 -6 -5 -6 -6 -6 -5 -6 -6 -6 -6 -5 -5 -5 -5 -5 -5 -5 -5 -4 -4 -4 -4 -5 -5 -5 -4 -5 -5 -6 -6 -6 -6 -7 -7 -7 -6 -6 -7
-5 -5 -5 -5 -6 -6 -6 -5 -5 -6 -6 -6 -6 -6 -6 -6 -6 -5 -6 -6 -4 -5 -6 -6 -5 -4 -4 -4 -4 -4 -4 -5 -5 -5 -6 -6 -7 -6 -7 -7 -7 -7 -7 -7
-5 -5 -4 -5 -5 -6 -6 -5 -5 -6 -6 -6 -6 -6 -6 -6 -5 -6 -5 -3 -3 -4 -5 -5 -5 -6 -6 -5 -4 -4 -5 -4 -5 -5 -6 -7 -7 -7 -7 -8 -8 -8 -8 -7
-6 -5 -4 -5 -6 -7 -6 -6 -5 -6 -6 -6 -6 -6 -6 -6 -6 -4 -3 -3 -3 -4 -5 -5 -5 -5 -5 -5 -5 -5 -5 -5 -5 -5 -6 -6 -7 -7 -7 -8 -9 -9 -9 -8
-6 -6 -5 -5 -6 -7 -7 -6 -6 -6 -6 -6 -6 -6 -6 -6 -5 -4 -4 -4 -4 -4 -3 -4 -4 -4 -4 -4 -4 -4 -5 -5 -5 -6 -7 -7 -7 -7 -7 -8 -8 -9 -9 -8
-5 -5 -6 -6 -6 -6 -7 -7 -7 -6 -6 -6 -5 -6 -6 -5 -6 -6 -4 -4 -4 -4 -4 -4 -5 -5 -4 -4 -4 -4 -4 -5 -6 -6 -7 -8 -8 -8 -8 -8 -7 -9 -10 -9
-5 -4 -5 -6 -6 -7 -7 -7 -7 -7 -6 -6 -6 -5 -6 -6 -5 -4 -4 -4 -4 -5 -5 -6 -5 -5 -4 -3 -4 -4 -4 -5 -6 -8 -9 -9 -9 -9 -9 -9 -7 -9 -10 -9
-6 -5 -5 -5 -6 -7 -7 -7 -7 -6 -6 -5 -5 -5 -6 -5 -5 -4 -4 -4 -5 -6 -6 -5 -5 -5 -5 -4 -4 -4 -4 -6 -6 -8 -9 -10 -10 -9 -9 -9 -8 -8 -10 -10
-5 -5 -5 -5 -5 -6 -6 -7 -7 -6 -6 -6 -6 -6 -4 -5 -4 -4 -4 -5 -6 -6 -5 -5 -5 -5 -5 -5 -5 -5 -5 -6 -7 -8 -10 -11 -10 -10 -8 -9 -9 -9 -9 -10
-5 -5 -5 -5 -5 -5 -6 -6 -7 -7 -7 -6 -6 -6 -4 -4 -4 -4 -5 -5 -6 -5 -5 -5 -5 -5 -5 -5 -5 -5 -6 -6 -7 -8 -10 -11 -11 -10 -11 -11 -10 -11 -10 -10
-5 -5 -5 -5 -5 -5 -5 -6 -6 -6 -6 -5 -5 -4 -4 -4 -4 -4 -6 -6 -7 -6 -6 -5 -5 -5 -5 -5 -5 -5 -6 -6 -7 -8 -9 -10 -10 -10 -10 -10 -10 -10 -10 -10
-5 -5 -5 -4 -5 -5 -5 -5 -5 -5 -5 -5 -4 -4 -4 -4 -5 -5 -6 -7 -6 -6 -5 -5 -5 -5 -5 -5 -5 -5 -7 -7 -7 -8 -9 -9 -10 -10 -10 -10 -10 -10 -10 -10
-5 -5 -5 -5 -5 -4 -5 -6 -6 -5 -5 -5 -5 -5 -5 -5 -5 -6 -6 -6 -6 -6 -6 -6 -6 -5 -5 -5 -5 -6 -6 -7 -7 -8 -9 -9 -9 -10 -10 -9 -9 -10 -10 -10
-5 -5 -5 -5 -5 -5 -5 -5 -6 -6 -5 -5 -5 -5 -6 -6 -6 -6 -7 -7 -7 -6 -6 -6 -5 -5 -5 -6 -6 -6 -7 -8 -8 -8 -9 -9 -9 -9 -9 -10 -10 -10 -10 -10
-5 -5 -6 -6 -5 -5 -5 -5 -5 -5 -6 -6 -7 -7 -7 -7 -7 -7 -8 -8 -7 -7 -7 -6 -6 -6 -6 -6 -6 -7 -7 -8 -8 -9 -9 -8 -9 -9 -9 -9 -9 -9 -9 -10
-6 -6 -7 -7 -6 -6 -6 -6 -6 -6 -6 -5 -6 -6 -6 -7 -7 -8 -8 -8 -7 -7 -7 -7 -6 -6 -6 -6 -6 -6 -7 -7 -7 -8 -9 -9 -9 -9 -9 -10 -9 -9 -9 -10
-6 -6 -6 -7 -7 -6 -7 -7 -7 -7 -7 -7 -7 -8 -8 -9 -9 -9 -9 -9 -8 -8 -8 -7 -7 -7 -7 -7 -7 -7 -7 -7 -7 -8 -9 -9 -10 -10 -10 -10 -10 -9 -10 -10
-6 -7 -6 -7 -7 -7 -6 -6 -6 -7 -7 -7 -8 -8 -8 -8 -9 -9 -9 -9 -9 -9 -9 -9 -8 -8 -8 -8 -8 -8 -8 -8 -7 -9 -10 -10 -10 -10 -10 -10 -10 -10 -10 -11
-6 -6 -6 -7 -7 -8 -8 -8 -8 -8 -9 -9 -9 -9 -10 -10 -10 -10 -10 -10 -10 -10 -10 -10 -9 -8 -8 -8 -8 -8 -9 -8 -9 -9 -10 -10 -10 -10 -10 -10 -10 -10 -10 -10
-6 -7 -7 -7 -8 -8 -8 -8 -9 -9 -9 -9 -10 -10 -10 -10 -10 -11 -11 -11 -10 -10 -11 -11 -10 -9 -9 -9 -9 -9 -9 -9 -9 -10 -10 -10 -10 -10 -10 -10 -11 -10 -10 -10
-7 -7 -7 -7 -7 -7 -8 -8 -9 -9 -10 -10 -10 -10 -11 -11 -11 -11 -11 -11 -11 -11 -11 -11 -11 -10 -10 -9 -9 -9 -9 -10 -10 -10 -10 -10 -10 -10 -11 -11 -11 -11 -11 -11
Height
5941 5943 5944 5945 5943 5943 5941 5941 5940 5941 5942 5942 5941 5940 5938 5939 5935 5936 5935 5935 5933 5933 5933 5930 5927 5927 5927 5929 5929 5928 5924 5923 5923 5922 5920 5919 5919 5919 5919 5918 5917 5917 5916 5915
5941 5944 5944 5946 5944 5943 5942 5942 5941 5939 5939 5941 5939 5939 5938 5939 5938 5936 5936 5937 5934 5934 5934 5931 5927 5925 5927 5927 5928 5928 5925 5923 5921 5919 5917 5916 5915 5914 5913 5913 5911 5910 5909 5910
5941 5941 5943 5945 5944 5942 5940 5940 5939 5938 5937 5939 5937 5938 5939 5939 5937 5936 5936 5937 5936 5935 5934 5933 5929 5928 5932 5928 5925 5923 5922 5921 5918 5916 5913 5911 5910 5908 5908 5907 5906 5905 5903 5901
5940 5940 5940 5940 5941 5942 5940 5939 5937 5939 5940 5938 5936 5936 5937 5936 5936 5935 5934 5933 5933 5932 5931 5931 5931 5931 5930 5926 5923 5919 5917 5915 5913 5910 5909 5907 5904 5902 5903 5902 5900 5898 5898 5897
5942 5942 5941 5940 5940 5940 5942 5939 5938 5940 5937 5937 5934 5934 5935 5934 5935 5933 5932 5931 5931 5930 5929 5927 5928 5927 5925 5922 5919 5918 5915 5912 5909 5908 5906 5904 5900 5897 5895 5891 5890 5890 5888 5887
5941 5941 5941 5940 5941 5943 5941 5941 5942 5940 5938 5936 5935 5935 5933 5932 5930 5928 5926 5923 5925 5926 5924 5920 5918 5920 5920 5917 5917 5915 5910 5907 5904 5901 5900 5898 5896 5891 5887 5886 5881 5880 5879 5878
5943 5943 5942 5943 5943 5944 5942 5941 5942 5941 5937 5935 5934 5934 5935 5933 5932 5930 5928 5928 5924 5922 5921 5918 5915 5915 5915 5915 5912 5910 5906 5902 5899 5896 5892 5890 5888 5883 5879 5878 5875 5874 5871 5867
5944 5944 5943 5943 5942 5943 5944 5944 5942 5939 5937 5936 5934 5934 5935 5932 5929 5927 5930 5928 5923 5920 5919 5916 5913 5909 5906 5907 5906 5901 5899 5895 5890 5886 5881 5879 5876 5874 5870 5867 5865 5865 5863 5858
5943 5943 5942 5941 5941 5944 5944 5943 5942 5940 5937 5936 5936 5934 5931 5929 5928 5925 5923 5921 5919 5919 5917 5915 5911 5907 5903 5896 5893 5894 5889 5884 5881 5878 5873 5871 5866 5863 5858 5856 5855 5854 5853 5854
5942 5942 5941 5939 5939 5941 5942 5941 5941 5939 5937 5935 5931 5928 5927 5925 5923 5919 5918 5918 5916 5914 5910 5907 5904 5899 5895 5891 5887 5882 5875 5869 5863 5863 5859 5855 5854 5852 5849 5846 5845 5842 5844 5845
5938 5939 5941 5939 5937 5937 5938 5938 5936 5935 5934 5932 5930 5927 5924 5922 5919 5917 5915 5915 5912 5908 5905 5902 5899 5894 5888 5882 5876 5870 5867 5862 5853 5848 5845 5843 5841 5839 5837 5836 5834 5827 5834 5837
5935 5934 5936 5937 5936 5935 5934 5933 5932 5929 5930 5928 5926 5926 5921 5919 5917 5914 5912 5910 5908 5905 5900 5894 5889 5885 5880 5874 5868 5861 5851 5843 5839 5833 5829 5826 5825 5824 5822 5817 5808 5814 5821 5827
5934 5933 5933 5935 5934 5932 5931 5930 5928 5925 5925 5924 5923 5923 5917 5914 5912 5910 5908 5906 5904 5901 5898 5892 5886 5881 5875 5868 5861 5854 5845 5834 5824 5818 5813 5811 5811 5811 5810 5800 5795 5802 5805 5814
5931 5929 5928 5930 5930 5927 5927 5925 5922 5921 5920 5918 5917 5915 5912 5911 5908 5906 5904 5903 5900 5896 5891 5886 5880 5875 5869 5861 5853 5846 5838 5828 5817 5809 5806 5802 5803 5795 5790 5788 5791 5795 5797 5802
5926 5925 5923 5923 5924 5922 5921 5921 5921 5918 5916 5912 5911 5907 5905 5905 5904 5902 5900 5896 5891 5886 5882 5877 5871 5867 5861 5853 5848 5840 5831 5821 5812 5805 5800 5798 5797 5795 5787 5787 5789 5792 5793 5792
5921 5921 5919 5919 5919 5917 5914 5917 5912 5911 5909 5904 5901 5900 5899 5897 5897 5895 5892 5888 5882 5877 5873 5869 5864 5858 5852 5845 5839 5831 5824 5816 5808 5802 5797 5796 5794 5792 5791 5791 5789 5783 5780 5789
5916 5914 5913 5912 5911 5909 5912 5908 5905 5902 5900 5898 5894 5894 5891 5890 5889 5888 5886 5882 5877 5872 5867 5861 5855 5849 5843 5837 5831 5824 5817 5811 5805 5798 5793 5792 5791 5786 5783 5781 5783 5779 5777 5785
5911 5909 5907 5905 5905 5903 5904 5902 5898 5894 5891 5891 5888 5886 5883 5881 5880 5877 5875 5871 5866 5861 5857 5852 5845 5841 5835 5829 5823 5816 5810 5804 5801 5795 5790 5788 5787 5785 5781 5778 5777 5775 5777 5780
5905 5903 5901 5899 5897 5896 5896 5894 5891 5887 5883 5881 5880 5877 5874 5872 5870 5867 5864 5860 5855 5851 5846 5842 5836 5830 5825 5820 5815 5808 5801 5795 5792 5791 5786 5783 5783 5783 5782 5779 5775 5774 5774 5775
5901 5897 5894 5892 5887 5884 5886 5884 5881 5878 5874 5874 5872 5869 5866 5863 5861 5858 5853 5847 5842 5839 5834 5830 5825 5820 5815 5810 5806 5799 5795 5790 5785 5783 5781 5778 5776 5776 5775 5775 5774 5772 5770 5770
5894 5890 5885 5880 5876 5875 5872 5869 5867 5865 5868 5861 5859 5856 5853 5851 5849 5845 5840 5834 5829 5827 5823 5818 5814 5809 5804 5799 5796 5792 5786 5783 5779 5776 5773 5772 5770 5768 5768 5768 5767 5765 5763 5762
5882 5879 5876 5873 5869 5866 5863 5859 5857 5854 5849 5846 5843 5840 5836 5835 5833 5830 5825 5818 5814 5814 5811 5806 5802 5798 5793 5789 5786 5784 5779 5776 5771 5769 5767 5764 5762 5763 5762 5762 5762 5762 5762 5759
5872 5867 5864 5863 5860 5855 5851 5846 5843 5841 5838 5835 5832 5829 5826 5822 5818 5814 5809 5805 5801 5799 5798 5793 5789 5787 5782 5779 5776 5774 5772 5770 5765 5763 5761 5760 5757 5756 5757 5757 5758 5757 5755 5757
5861 5859 5856 5853 5849 5842 5838 5835 5832 5828 5824 5819 5816 5814 5812 5808 5802 5797 5793 5790 5787 5784 5784 5780 5776 5774 5770 5767 5764 5763 5763 5761 5758 5758 5756 5756 5755 5754 5754 5753 5753 5753 5753 5754
5852 5849 5846 5839 5835 5830 5827 5823 5820 5817 5814 5812 5809 5805 5801 5795 5791 5784 5780 5775 5772 5769 5768 5766 5761 5760 5758 5756 5755 5754 5753 5752 5752 5751 5751 5750 5750 5748 5747 5748 5747 5747 5748 5750
5839 5833 5828 5826 5822 5817 5815 5811 5807 5805 5804 5801 5796 5791 5786 5780 5775 5771 5768 5763 5759 5755 5752 5752 5748 5748 5746 5745 5744 5744 5743 5744 5744 5745 5744 5743 5744 5743 5743 5743 5744 5744 5744 5745
Wind_Speed
3 2 6 8 15 9 12 13 10 19 20 14 13 16 16 16 12 16 11 7 11 10 9 12 9 17 13 12 12 15 15 17 16 16 16 16 17 18 19 20 22 23 23 24
6 13 12 12 16 11 9 5 8 14 13 16 21 21 24 17 20 16 18 18 19 14 11 7 5 12 12 22 18 16 18 19 19 17 16 20 21 22 21 21 23 25 25 27
9 5 4 3 9 8 5 4 7 10 12 11 19 20 20 18 20 17 21 20 17 18 17 13 13 9 12 13 22 16 15 21 24 22 22 23 25 27 27 26 25 28 29 32
7 3 5 3 10 12 10 6 3 1 6 10 16 19 19 18 18 18 20 21 21 22 20 14 15 13 13 17 18 13 14 12 19 22 22 25 25 30 30 27 29 29 29 34
3 6 9 2 17 19 15 7 5 7 12 6 12 12 17 18 13 18 17 19 21 22 18 20 18 18 17 18 12 18 15 15 24 26 29 29 25 24 29 27 29 30 31 35
3 3 3 16 20 16 10 5 15 16 11 11 10 11 18 19 24 23 23 29 27 18 18 24 27 24 21 21 18 21 20 20 26 31 27 35 31 28 31 29 30 35 32 30
10 8 15 17 14 4 6 2 10 9 9 6 11 13 15 21 23 22 25 29 14 15 19 19 28 30 28 25 26 24 21 22 30 32 31 37 36 33 23 25 26 25 32 33
7 7 10 11 9 5 6 7 11 10 11 8 8 11 15 18 23 25 24 13 16 20 19 23 25 29 34 33 33 34 32 32 34 34 37 38 38 35 29 26 29 26 25 27
1 2 6 9 12 11 6 5 2 7 7 4 6 8 14 18 21 21 19 21 22 18 18 22 26 30 34 38 39 37 41 41 41 40 40 41 41 38 33 26 32 22 16 22
3 6 6 6 8 3 6 7 7 8 10 4 9 13 16 21 24 24 27 27 26 25 27 30 32 35 39 42 46 47 48 45 48 44 44 44 42 38 37 34 35 25 12 15
5 6 5 8 9 5 1 10 15 13 10 16 18 18 24 26 26 30 29 28 27 29 32 34 36 37 42 47 51 53 53 51 46 48 46 44 42 41 39 37 45 26 14 16
7 7 6 11 16 13 13 11 14 22 10 16 20 19 23 26 27 29 28 28 29 32 36 42 43 43 46 50 53 56 60 56 53 50 45 42 39 38 42 46 42 22 18 19
14 15 12 8 14 20 21 24 26 26 14 16 19 16 25 27 30 30 31 31 33 35 38 39 42 44 47 51 55 55 54 57 56 47 42 38 31 34 35 42 29 28 28 25
15 17 19 14 15 20 25 30 32 31 29 28 27 28 28 29 32 34 33 33 34 36 38 40 42 44 47 51 53 51 49 50 43 37 29 28 25 36 35 23 19 28 26 26
13 12 20 20 17 21 26 29 30 36 38 38 36 37 33 32 33 31 30 34 38 41 41 43 44 46 48 51 50 47 43 40 33 27 22 21 22 26 35 31 30 33 36 28
18 16 19 19 19 21 25 21 29 30 32 37 38 36 36 35 32 31 29 33 41 45 44 44 45 47 48 51 49 46 40 34 28 24 20 17 18 19 23 22 28 27 23 19
21 23 22 19 21 22 17 22 26 29 30 33 36 36 38 36 33 32 33 37 40 43 42 44 46 47 49 50 49 41 36 34 30 25 22 17 20 21 16 16 23 10 5 12
21 22 25 26 23 25 19 16 25 29 32 32 35 36 37 37 36 36 36 39 40 44 44 44 47 46 47 49 46 39 34 33 30 24 20 16 15 18 19 12 13 12 12 14
26 29 31 32 32 32 28 27 28 33 37 38 38 39 40 41 41 40 40 41 45 46 46 45 45 46 47 49 45 40 34 31 29 27 20 18 16 14 13 11 12 15 18 17
29 33 35 36 40 40 37 37 38 38 41 41 39 40 42 44 43 43 44 47 48 46 47 46 45 46 48 48 43 29 26 31 31 29 21 18 18 16 13 9 11 12 15 23
31 33 36 39 43 45 45 46 46 46 44 45 46 47 48 48 47 45 47 49 51 47 46 46 45 47 47 47 37 34 33 31 32 31 27 21 19 18 14 12 13 8 8 11
37 38 39 39 42 44 45 47 49 50 52 54 55 56 57 56 53 51 50 53 54 48 47 47 45 45 46 45 38 33 23 26 28 29 28 25 18 14 15 14 10 9 11 11
39 40 39 38 40 43 47 50 52 54 55 55 56 57 57 56 54 52 54 55 54 50 44 46 46 45 46 43 36 22 19 27 26 25 20 19 18 16 14 13 11 9 8 12
34 34 37 40 41 45 49 51 53 55 58 59 60 60 58 57 56 55 55 55 54 52 44 43 48 45 45 42 35 30 27 26 20 21 19 20 19 17 18 17 14 12 12 12
36 37 38 42 43 46 48 50 52 53 54 55 54 52 52 53 51 49 48 48 49 48 43 39 44 42 40 37 32 26 23 25 20 22 23 21 20 21 18 16 16 15 15 16
40 44 47 47 48 52 53 51 51 50 46 45 46 47 47 48 50 48 48 48 47 45 41 36 40 38 38 33 29 24 22 24 20 21 23 22 22 23 20 19 18 18 19 20
Wind_Direction
301 51 143 128 86 99 117 115 88 73 58 39 50 45 54 58 81 84 39 25 34 24 23 5 34 360 346 350 355 341 337 331 331 325 310 298 288 281 280 277 275 272 268 269
118 114 115 111 120 97 98 113 102 81 57 58 57 61 48 73 68 67 76 65 61 50 37 342 349 330 303 321 326 332 326 319 315 304 314 314 302 288 280 276 278 275 274 271
131 127 52 53 96 79 95 93 50 100 84 63 63 61 63 50 59 64 63 60 66 57 56 49 38 28 337 352 354 333 315 317 312 289 294 302 308 298 291 282 276 277 278 277
133 153 169 129 74 86 78 104 78 78 73 19 67 54 33 43 51 44 42 33 31 27 21 31 41 43 15 345 349 336 334 302 313 303 297 298 301 301 294 294 289 282 280 280
128 318 292 178 116 86 86 97 224 18 37 119 36 34 29 17 40 28 26 18 13 20 352 358 29 31 14 39 19 356 322 330 341 318 311 313 302 305 292 281 286 275 277 278
179 186 147 134 122 113 128 104 74 80 61 48 31 21 9 354 359 0 359 354 358 19 7 345 358 9 8 357 345 335 322 279 304 315 309 312 302 306 305 284 290 271 272 277
137 117 122 141 153 188 220 239 81 79 37 74 20 5 348 341 343 347 345 330 8 8 15 346 340 347 350 351 338 336 320 299 296 300 302 299 300 299 284 285 293 284 287 291
150 138 137 113 114 100 221 346 125 67 27 81 353 339 327 329 333 330 320 17 15 14 359 339 337 336 335 334 333 330 322 315 306 302 298 294 294 289 275 280 290 283 302 308
165 268 143 116 78 43 323 320 134 122 50 332 325 303 307 319 314 315 353 4 2 7 340 335 341 337 331 326 324 322 320 316 311 304 294 290 289 285 272 278 281 272 300 304
156 243 269 161 121 331 321 292 309 246 214 235 291 306 301 295 304 325 328 331 342 346 343 340 338 332 327 326 326 329 325 316 310 304 293 286 280 267 267 266 266 252 269 280
254 249 224 277 248 232 285 302 318 299 256 233 244 262 277 287 302 304 312 327 343 339 335 330 328 327 325 326 327 327 325 317 309 305 297 288 279 271 259 256 262 232 250 263
282 276 239 242 251 248 268 258 260 280 253 259 271 269 271 276 285 295 313 328 333 332 328 323 321 323 324 324 325 327 326 321 318 308 299 291 287 274 267 258 249 219 230 245
285 273 267 250 243 236 237 252 261 279 271 246 267 276 278 283 287 300 309 320 324 322 315 314 316 319 323 323 323 327 324 320 318 312 303 295 282 276 278 281 235 232 214 221
270 281 279 268 252 252 245 246 259 274 281 279 287 294 287 281 289 297 305 313 311 308 310 315 314 319 319 320 324 324 323 321 321 319 308 294 278 270 269 291 313 279 251 205
305 284 277 284 276 262 251 254 265 268 273 281 284 282 281 285 292 296 302 306 309 307 314 313 314 315 316 316 324 323 322 324 326 326 314 299 284 284 298 309 305 298 288 237
302 297 286 276 278 275 269 273 264 267 267 269 273 280 286 289 294 297 303 304 304 304 308 308 310 311 312 314 324 325 322 324 327 326 317 304 294 290 287 291 296 298 269 240
299 297 297 297 297 288 291 269 276 275 274 276 283 286 288 291 294 295 297 295 295 296 302 305 307 308 311 315 325 323 316 317 316 316 314 307 299 295 297 300 318 342 158 218
289 289 291 296 293 289 289 282 281 283 280 280 285 290 294 295 298 298 298 296 296 297 300 302 304 305 308 315 323 321 309 310 307 307 307 299 295 297 296 297 298 296 271 247
282 287 289 290 291 291 289 289 285 289 291 294 295 294 295 297 299 301 302 298 292 294 296 297 299 303 307 314 319 318 298 297 298 301 298 290 275 276 285 288 290 284 246 245
284 288 291 292 292 291 295 292 291 288 287 296 290 286 288 292 293 294 294 292 293 295 296 298 299 303 306 310 319 317 299 297 295 290 288 282 283 287 275 285 295 273 259 243
285 286 287 288 291 293 296 296 295 294 296 293 292 291 291 293 296 296 296 294 291 296 299 297 297 300 302 307 314 313 308 292 288 284 280 278 269 280 283 287 275 268 247 226
285 283 282 284 285 288 290 292 292 295 296 297 298 298 299 300 301 299 295 290 292 297 297 293 292 295 298 303 307 305 288 296 295 281 278 275 270 267 276 274 274 250 223 211
283 283 286 287 293 290 290 291 292 293 293 292 292 293 297 300 301 298 296 297 298 298 299 294 292 294 295 299 300 282 279 297 290 282 274 270 272 275 275 264 260 252 245 236
282 285 286 289 286 285 286 288 289 291 292 293 296 299 302 303 302 300 299 298 297 295 294 289 287 287 290 293 297 292 284 282 270 268 266 265 266 268 276 276 266 262 253 240
286 285 284 282 284 285 285 283 284 285 286 290 295 298 296 295 297 295 293 291 291 292 291 288 285 284 287 290 291 285 282 265 263 272 271 263 262 272 274 264 263 263 258 250
286 286 285 288 289 289 289 288 288 289 292 291 290 290 293 293 289 294 293 294 294 292 290 287 285 286 285 288 285 281 271 252 261 267 269 263 265 269 266 256 253 255 256 252